カタログに戻る

STARLINK-32418

運用中通信VLEO
NORAD 62429·PAYLOAD·🇺🇸 United States

打ち上げ Dec 23, 2024 から Cape Canaveral Space Force Station

Loading…

次のパス (今後24時間)

TLE

最新Source: CelesTrak SupGP

元期: Sep 14, 2026, 20:51 UTC

1 62429C 24249W   26257.86923611 -.00021042  00000+0 -76210-3 0  2578
2 62429  43.0034 325.6333 0001684 272.6720 200.3951 15.27590015    15

AllMySatでSTARLINK-32418をリアルタイム追跡

Download on the App Store